SCP
0 0 0 0 0 0 0 0 0 0 0 0 0 0 0 0 0 0 0 0 0 0 0 0 0 0 0 0 0 0 0 0 0 0 0 0 0 0
0 0 0 0 0 0 0 0 0 0 0 0 0 0 0 0 0 0 0 0 0 0 0 0 0 0 0 0 0 0 0 0 0 0 0 0 0 0
0 0 0 0 0 0 0 0 0 0 0 0 0 0 0 0 0 0 0 0 0 0 0 0 0 0 0 0 0 0 0 0 0 0 0 0 0 0
0 0 0 0 0 0 0 0 0 0 0 0 0 0 0 0 0 0 0 0 0 0 0 0 0 0 0 0 0 0 0 0 0 0 0 0 0 0
0 0 0 0 0 0 0 0 0 0 0 0 0 0 0 0 0 0 0 0 0 0 0 0 0 0 0 0 0 0 0 0 0 0 0 0 0 0
0 0 0 0 0 0 0 0 0 0 0 0 0 0 0 0 0 0 0 0 0 0 0 0 0 0 0 0 0 0 0 0 0 0 0 0 0 0
0 0 0 0 0 0 0 0 0 0 0 0 0 0 0 0 0 0 0 0 0 0 0 0 0 0 0 0 0 0 0 0 0 0 0 0 0 0
0 0 0 0 0 0 0 0 0 0 0 0 0 0 0 0 0 0 0 0 0 0 0 0 0 0 0 0 0 0 0 0 0 0 0 0 0 0
0 0 0 0 0 0 0 0 0 0 0 0 0 0 0 0 0 0 0 0 0 0 0 0 0 0 0 0 0 0 0 0 0 0 0 0 0 0
0 0 0 0 0 0 0 0 0 0 0 0 0 0 0 0 0 0 0 0 0 0 0 0 0 0 0 0 0 0 0 0 0 0 0 0 0 0
0 0 0 0 0 0 0 0 0 0 0 0 0 0 0 0 0 0 0 0 0 0 0 0 0 0 0 0 0 0 0 0 0 0 0 0 0 0
0 0 0 0 0 0 0 0 0 0 0 0 0 0 0 0 0 0 0 0 0 0 0 0 0 0 0 0 0 0 0 0 0 0 0 0 0 0
0 0 0 0 0 0 0 0 0 0 0 0 0 0 0 0 0 0 0 0 0 0 0 0 0 0 0 0 0 0 0 0 0 0 0 0 0 0
0 0 0 0 0 0 0 0 0 0 0 0 0 0 0 0 0 0 0 0 0 0 0 0 0 0 0 0 0 0 0 0 0 0 0 0 0 0
0 0 0 0 0 0 0 0 0 0 0 0 0 0 0 0 0 0 0 0 0 0 0 0 0 0 0 0 0 0 0 0 0 0 0 0 0 0
0 0 0 0 0 0 0 0 0 0 0 0 0 0 0 0 0 0 0 0 0 0 0 0 0 0 0 0 0 0 0 0 0 0 0 0 0 0
0 0 0 0 0 0 0 0 0 0 0 0 0 0 0 0 0 0 0 0 0 0 0 0 0 0 0 0 0 0 0 0 0 0 0 0 0 0
0 0 0 0 0 0 0 0 0 0 0 0 0 0 0 0 0 0 0 0 0 0 0 0 0 0 0 0 0 0 0 0 0 0 0 0 0 0
0 0 0 0 0 0 0 0 0 0 0 0 0 0 0 0 0 0 0 0 0 0 0 0 0 0 0 0 0 0 0 0 0 0 0 0 0 0
0 0 0 0 0 0 0 0 0 0 0 0 0 0 0 0 0 0 0 0 0 0 0 0 0 0 0 0 0 0 0 0 0 0 0 0 0 0
0 0 0 0 0 0 0 0 0 0 0 0 0 0 0 0 0 0 0 0 0 0 0 0 0 0 0 0 0 0 0 0 0 0 0 0 0 0
0 0 0 0 0 0 0 0 0 0 0 0 0 0 0 0 0 0 0 0 0 0 0 0 0 0 0 0 0 0 0 0 0 0 0 0 0 0
0 0 0 0 0 0 0 0 0 0 0 0 0 0 0 0 0 0 0 0 0 0 0 0 0 0 0 0 0 0 0 0 0 0 0 0 0 0
Wind_Speed
4 4 3 3 2 2 2 2 2 2 3 3 2 2 3 4 7 6 6 11 13 13 12 12 11 10 10 11 11 11 11 11 11 12 13 14 15 16
4 4 4 3 3 2 2 2 3 3 3 3 3 2 3 3 5 5 5 10 12 12 11 11 10 10 10 10 10 10 9 9 9 10 10 11 12 13
5 5 6 4 3 3 3 2 3 3 4 3 2 1 2 3 4 3 3 4 5 10 10 10 10 10 9 9 9 9 9 9 9 9 9 10 10 11
7 6 6 5 5 4 3 4 3 3 4 4 2 2 2 4 5 5 4 4 4 7 9 9 8 9 9 8 8 8 8 8 8 8 8 9 10 10
7 7 7 6 6 5 5 4 4 4 3 3 3 2 1 3 4 4 4 3 3 5 7 6 7 7 8 8 8 7 7 7 7 7 7 7 7 8
7 8 8 8 8 7 6 6 5 4 3 3 3 3 2 3 4 4 3 2 3 3 4 4 5 6 6 6 7 7 7 7 6 6 6 6 6 6
7 7 8 10 11 8 6 6 6 5 4 4 4 3 3 4 5 4 5 4 2 3 3 2 3 3 2 4 5 5 6 6 6 6 5 5 5 5
7 7 7 8 11 12 12 12 11 8 6 5 4 4 5 4 4 5 6 5 4 4 4 3 3 3 2 1 3 5 6 6 5 5 5 5 4 4
8 7 7 7 8 6 9 11 11 12 11 7 6 6 6 6 6 6 7 6 4 6 5 3 3 2 2 2 3 4 5 5 5 5 5 5 4 4
8 9 8 7 7 7 6 5 6 7 8 7 6 6 5 6 8 7 6 5 4 3 4 4 3 2 2 2 3 4 5 5 6 6 6 6 6 6
8 8 8 7 10 11 7 6 5 5 7 9 9 8 8 8 7 6 6 6 4 3 2 4 4 3 2 2 3 5 5 6 7 8 9 9 8 7
5 6 10 10 10 11 8 7 7 6 4 4 5 6 6 7 9 7 7 7 5 4 4 5 5 4 3 2 2 2 3 5 7 8 9 9 8 5
4 4 5 10 11 12 10 7 9 7 5 5 4 4 4 4 5 5 6 6 6 3 5 5 5 4 4 4 2 2 2 3 3 4 5 7 6 5
4 4 5 8 8 10 9 9 11 8 4 4 3 4 4 5 5 6 7 6 5 5 8 7 5 6 6 5 4 3 3 3 3 3 3 5 6 7
4 6 7 7 6 6 9 10 9 5 4 4 4 5 5 5 5 4 5 5 4 5 7 6 6 6 5 5 6 5 4 3 3 4 3 3 3 3
3 4 5 5 4 4 4 5 5 5 6 5 5 4 3 4 4 4 5 5 4 3 4 6 8 9 5 4 6 6 5 6 6 5 4 3 3 3
2 1 1 2 2 2 2 3 4 4 5 4 4 4 4 4 4 4 4 5 5 5 5 4 4 5 5 7 6 6 6 5 6 6 5 4 3 3
3 2 3 3 4 4 4 4 4 5 5 5 4 4 4 4 4 4 4 5 5 5 6 6 6 5 3 2 4 7 6 5 6 6 4 4 3 3
2 3 3 4 4 5 5 5 5 6 5 5 5 5 5 4 4 5 5 5 5 5 6 6 7 7 7 5 4 5 7 7 7 6 5 4 4 4
3 3 4 4 4 4 4 5 5 4 5 5 5 5 5 5 4 5 5 6 5 5 6 6 7 7 7 7 5 5 8 8 8 7 5 3 3 3
3 4 4 4 4 4 5 5 5 5 5 5 5 6 5 5 5 5 6 8 6 6 7 7 6 8 5 6 5 4 4 7 8 7 7 5 3 3
3 3 3 4 4 4 4 4 4 5 5 5 5 5 5 5 6 7 6 7 6 6 6 5 6 7 5 6 7 7 6 5 5 7 7 7 7 7
3 3 3 3 3 3 3 4 5 5 5 5 5 5 6 5 5 5 6 7 6 6 6 6 6 5 5 6 7 6 8 7 5 4 2 3 3 6
Wind_Direction
226 226 215 216 212 213 209 197 200 231 248 246 234 222 199 188 188 182 182 192 190 190 192 194 197 201 203 205 208 210 212 215 218 221 221 221 220 223
222 219 229 226 215 208 208 211 207 216 241 248 233 223 196 190 181 177 183 181 183 183 187 191 194 197 201 202 203 204 208 212 217 220 220 220 221 223
237 223 224 222 219 212 203 207 212 209 233 259 255 249 182 168 152 152 153 164 175 181 184 190 195 196 198 198 200 202 205 209 213 217 220 222 225 228
231 226 229 223 217 214 205 209 215 214 216 238 240 221 198 175 157 155 157 164 161 176 178 184 190 192 191 192 196 198 202 206 211 214 218 221 225 231
224 218 221 217 218 213 207 210 214 221 211 221 224 204 190 169 148 146 145 139 156 160 169 180 186 186 185 187 191 194 198 202 205 208 213 219 224 231
228 221 216 209 213 210 208 207 206 208 209 217 218 200 184 170 153 154 156 152 153 146 140 141 155 164 172 177 184 189 194 198 203 206 211 218 225 230
239 230 224 219 215 210 209 199 195 198 200 211 212 196 186 170 174 168 164 156 153 152 138 141 135 133 148 163 171 178 184 189 193 197 203 207 210 213
236 237 238 232 223 219 218 206 193 191 196 203 207 202 201 181 172 170 160 162 174 170 152 153 141 135 129 139 169 173 177 181 182 181 181 181 180 186
228 228 236 232 213 210 219 216 208 204 196 191 202 204 200 185 170 173 173 166 168 165 146 148 140 135 110 96 133 152 160 164 164 160 156 152 147 147
225 222 219 226 220 202 203 206 209 212 208 203 203 208 203 186 178 174 166 144 121 147 143 142 141 124 103 84 104 127 137 141 142 141 136 131 122 111
227 224 214 215 220 207 195 197 208 227 225 215 206 204 198 186 168 150 150 152 152 166 155 133 132 118 108 97 90 111 121 129 132 131 127 124 118 107
231 228 221 216 213 207 196 191 199 213 210 206 209 212 205 194 183 174 165 164 154 165 169 138 138 136 133 121 119 116 108 112 121 124 126 127 126 115
225 223 221 219 215 210 199 192 202 194 189 188 190 193 191 191 189 185 179 171 166 171 166 144 142 141 137 138 142 140 135 133 126 118 118 124 124 123
223 223 218 215 215 209 203 202 199 188 173 174 182 193 192 193 194 189 191 188 179 173 165 152 145 154 143 143 154 151 147 147 141 135 130 122 107 101
220 217 206 205 208 206 207 201 189 180 173 178 192 204 201 192 180 182 183 178 171 173 170 163 148 149 147 150 154 155 153 165 163 152 151 147 142 135
217 213 198 192 190 195 191 192 184 181 179 186 195 200 190 175 180 177 177 169 164 169 178 174 166 158 152 147 152 158 157 162 169 169 156 149 147 152
177 167 164 169 185 192 189 183 183 181 191 188 186 187 186 184 186 180 170 164 170 171 168 161 159 152 150 149 152 160 155 153 162 162 157 157 168 174
172 188 197 198 200 199 196 194 193 197 198 191 187 187 186 188 189 180 171 172 175 175 171 162 147 130 108 82 153 158 161 158 156 160 153 155 175 185
195 211 209 208 208 201 197 197 201 201 192 188 190 190 184 183 183 178 173 173 175 173 171 165 165 162 166 169 177 174 162 158 157 164 168 157 173 185
217 221 221 216 212 205 200 203 204 194 188 191 191 188 182 180 184 179 177 176 173 171 171 173 177 177 177 167 159 173 172 160 163 167 163 126 97 101
235 232 227 219 213 206 201 199 196 194 191 189 189 186 180 178 185 183 180 179 170 171 180 186 183 160 126 119 126 139 159 171 163 160 154 140 132 136
247 243 235 224 216 208 200 195 194 192 189 187 186 184 181 179 184 183 179 177 177 175 176 165 150 149 148 160 160 153 147 144 139 136 146 155 160 175
247 243 243 238 227 214 202 197 194 191 186 182 182 183 180 180 183 180 179 176 169 167 162 160 160 161 161 157 153 148 148 149 142 131 114 4 202 189